Location: Ariel
(45.9570°N, 122.5700°W)
Time: 08:30:09
(UTC-07:00)

Tiros 1 - Pass Details

Date: 23 July 2019
Orbit: 631 x 664 km, 48.4° (Epoch: 23 August)

Event Time Altitude Azimuth Distance (km) Brightness Sun altitude
Rises 17:59:19 0° 289° (WNW) 2,999 11.7 27.5°
Reaches altitude 10° 18:01:45 10° 284° (WNW) 2,082 11.4 27.1°
Maximum altitude 18:06:19 45° 212° (SSW) 900 8.6 26.3°
Drops below altitude 10° 18:10:51 10° 140° (SE) 2,061 9.4 25.5°
Sets 18:13:15 0° 134° (SE) 2,965 10.1 25.1°
